TimeCDT,TemperatureF,Dew PointF,Humidity,Sea Level PressureIn,VisibilityMPH,Wind Direction,Wind SpeedMPH,Gust SpeedMPH,PrecipitationIn,Events,Conditions,WindDirDegrees,DateUTC
12:15 AM,35.1,30.0,82,30.07,10.0,NNW,6.9,-,N/A,,Clear,330,2013-04-16 05:15:00
12:35 AM,34.7,30.0,83,30.08,10.0,NNW,5.8,-,N/A,,Clear,330,2013-04-16 05:35:00
12:55 AM,34.0,30.2,86,30.07,10.0,NNW,5.8,-,N/A,,Clear,330,2013-04-16 05:55:00
1:15 AM,33.8,30.0,86,30.08,10.0,NW,3.5,-,N/A,,Clear,320,2013-04-16 06:15:00
1:35 AM,33.8,29.8,85,30.07,10.0,NNW,4.6,-,N/A,,Clear,330,2013-04-16 06:35:00
1:55 AM,32.9,29.8,88,30.07,10.0,NW,3.5,-,N/A,,Clear,320,2013-04-16 06:55:00
2:15 AM,33.3,29.3,85,30.06,10.0,NNW,3.5,-,N/A,,Clear,330,2013-04-16 07:15:00
2:35 AM,32.9,29.3,87,30.07,10.0,Calm,Calm,-,N/A,,Clear,0,2013-04-16 07:35:00
2:55 AM,33.1,30.0,89,30.09,10.0,NW,4.6,-,N/A,,Scattered Clouds,310,2013-04-16 07:55:00
3:15 AM,33.3,30.0,88,30.08,10.0,NW,4.6,-,N/A,,Clear,320,2013-04-16 08:15:00
3:35 AM,33.4,30.0,87,30.09,10.0,NW,5.8,-,N/A,,Scattered Clouds,320,2013-04-16 08:35:00
3:55 AM,33.4,29.8,87,30.08,10.0,NNW,6.9,-,N/A,,Mostly Cloudy,340,2013-04-16 08:55:00
4:15 AM,34.2,29.7,84,30.10,10.0,NNW,4.6,-,N/A,,Scattered Clouds,330,2013-04-16 09:15:00
4:35 AM,34.2,29.8,84,30.13,10.0,NW,5.8,-,N/A,,Mostly Cloudy,310,2013-04-16 09:35:00
4:55 AM,34.5,29.7,82,30.13,10.0,NW,5.8,-,N/A,,Mostly Cloudy,320,2013-04-16 09:55:00
5:15 AM,34.2,29.8,84,30.13,10.0,NW,3.5,-,N/A,,Scattered Clouds,310,2013-04-16 10:15:00
5:35 AM,33.8,29.8,85,30.15,10.0,WNW,5.8,-,N/A,,Scattered Clouds,290,2013-04-16 10:35:00
5:55 AM,33.8,30.6,88,30.16,10.0,West,4.6,-,N/A,,Clear,280,2013-04-16 10:55:00
6:15 AM,33.8,30.7,89,30.15,10.0,NW,4.6,-,N/A,,Clear,310,2013-04-16 11:15:00
6:35 AM,34.0,30.4,87,30.16,10.0,NW,5.8,-,N/A,,Clear,320,2013-04-16 11:35:00
7:15 AM,34.7,30.0,83,30.17,10.0,NNW,5.8,-,N/A,,Scattered Clouds,330,2013-04-16 12:15:00
7:35 AM,34.7,30.2,84,30.17,10.0,North,6.9,-,N/A,,Clear,350,2013-04-16 12:35:00
7:55 AM,34.7,30.2,84,30.18,10.0,North,8.1,-,N/A,,Clear,350,2013-04-16 12:55:00
8:15 AM,34.9,30.2,83,30.18,10.0,NNW,5.8,-,N/A,,Clear,340,2013-04-16 13:15:00
8:35 AM,35.2,30.2,82,30.20,10.0,NNW,3.5,-,N/A,,Clear,330,2013-04-16 13:35:00
8:55 AM,35.8,30.6,81,30.20,10.0,North,4.6,-,N/A,,Clear,350,2013-04-16 13:55:00
9:15 AM,36.3,30.6,80,30.21,10.0,NNW,4.6,-,N/A,,Clear,340,2013-04-16 14:15:00
9:35 AM,36.7,30.2,77,30.22,10.0,North,6.9,-,N/A,,Clear,360,2013-04-16 14:35:00
9:55 AM,37.4,30.0,75,30.23,10.0,North,9.2,-,N/A,,Clear,350,2013-04-16 14:55:00
10:15 AM,37.6,30.2,75,30.24,10.0,North,6.9,-,N/A,,Clear,360,2013-04-16 15:15:00
10:35 AM,38.1,30.4,74,30.24,10.0,North,6.9,-,N/A,,Clear,350,2013-04-16 15:35:00
10:55 AM,39.0,30.4,71,30.25,10.0,North,9.2,-,N/A,,Scattered Clouds,350,2013-04-16 15:55:00
11:15 AM,39.4,30.2,70,30.25,10.0,North,8.1,-,N/A,,Scattered Clouds,10,2013-04-16 16:15:00
11:35 AM,40.6,30.2,66,30.25,10.0,North,8.1,-,N/A,,Mostly Cloudy,10,2013-04-16 16:35:00
11:55 AM,41.4,31.1,67,30.24,10.0,North,6.9,-,N/A,,Mostly Cloudy,10,2013-04-16 16:55:00
12:15 PM,41.9,31.3,66,30.24,10.0,North,6.9,-,N/A,,Mostly Cloudy,10,2013-04-16 17:15:00
12:35 PM,42.3,32.4,68,30.23,10.0,North,9.2,16.1,N/A,,Overcast,10,2013-04-16 17:35:00
12:55 PM,43.7,32.7,65,30.22,10.0,North,10.4,16.1,N/A,,Mostly Cloudy,10,2013-04-16 17:55:00
1:15 PM,44.4,33.4,65,30.22,10.0,North,13.8,17.3,N/A,,Mostly Cloudy,360,2013-04-16 18:15:00
1:35 PM,44.8,32.7,63,30.21,10.0,North,11.5,17.3,N/A,,Mostly Cloudy,10,2013-04-16 18:35:00
1:55 PM,45.7,33.4,62,30.21,10.0,North,12.7,-,N/A,,Mostly Cloudy,10,2013-04-16 18:55:00
2:15 PM,46.2,33.1,60,30.20,10.0,North,8.1,16.1,N/A,,Overcast,10,2013-04-16 19:15:00
2:35 PM,47.1,33.3,59,30.19,10.0,North,13.8,17.3,N/A,,Overcast,360,2013-04-16 19:35:00
2:55 PM,47.7,32.0,55,30.20,10.0,North,8.1,-,N/A,,Overcast,10,2013-04-16 19:55:00
3:15 PM,48.6,33.1,55,30.19,10.0,North,11.5,-,N/A,,Overcast,10,2013-04-16 20:15:00
3:35 PM,48.9,32.0,52,30.19,10.0,NNE,15.0,-,N/A,,Overcast,20,2013-04-16 20:35:00
3:55 PM,50.2,32.4,50,30.18,10.0,NNE,12.7,17.3,N/A,,Mostly Cloudy,20,2013-04-16 20:55:00
4:15 PM,49.3,32.2,52,30.17,10.0,NNE,12.7,17.3,N/A,,Mostly Cloudy,20,2013-04-16 21:15:00
4:35 PM,50.2,31.3,48,30.17,10.0,NE,12.7,18.4,N/A,,Overcast,40,2013-04-16 21:35:00
4:55 PM,50.2,31.8,49,30.18,10.0,NE,13.8,18.4,N/A,,Overcast,40,2013-04-16 21:55:00
5:15 PM,50.0,31.8,50,30.18,10.0,NE,12.7,18.4,N/A,,Overcast,50,2013-04-16 22:15:00
5:35 PM,50.0,32.2,50,30.18,10.0,NNE,13.8,20.7,N/A,,Overcast,30,2013-04-16 22:35:00
5:55 PM,50.0,31.5,49,30.18,10.0,ENE,12.7,-,N/A,,Overcast,60,2013-04-16 22:55:00
6:15 PM,49.3,31.1,50,30.18,10.0,ENE,11.5,-,N/A,,Overcast,70,2013-04-16 23:15:00
6:35 PM,49.1,31.5,51,30.18,10.0,ENE,12.7,-,N/A,,Overcast,60,2013-04-16 23:35:00
6:55 PM,48.7,31.8,52,30.17,10.0,ENE,10.4,-,N/A,,Overcast,60,2013-04-16 23:55:00
7:15 PM,48.4,32.0,53,30.18,10.0,ENE,9.2,-,N/A,,Overcast,70,2013-04-17 00:15:00
7:35 PM,48.2,32.4,54,30.18,10.0,NE,9.2,-,N/A,,Overcast,50,2013-04-17 00:35:00
7:55 PM,47.8,32.0,54,30.18,10.0,ENE,10.4,-,N/A,,Overcast,70,2013-04-17 00:55:00
8:15 PM,47.7,32.0,55,30.19,10.0,ENE,9.2,-,N/A,,Overcast,70,2013-04-17 01:15:00
8:35 PM,47.5,32.2,55,30.19,10.0,East,8.1,-,N/A,,Overcast,80,2013-04-17 01:35:00
8:55 PM,47.3,32.4,56,30.20,10.0,East,8.1,-,N/A,,Overcast,80,2013-04-17 01:55:00
9:15 PM,46.9,32.2,57,30.21,10.0,ENE,9.2,-,N/A,,Overcast,70,2013-04-17 02:15:00
9:35 PM,46.9,32.2,57,30.21,10.0,ENE,9.2,-,N/A,,Overcast,70,2013-04-17 02:35:00
9:55 PM,46.6,32.5,58,30.21,10.0,ENE,9.2,-,N/A,,Overcast,70,2013-04-17 02:55:00
10:15 PM,46.4,32.5,59,30.21,10.0,ENE,9.2,-,N/A,,Overcast,70,2013-04-17 03:15:00
10:35 PM,46.4,32.4,58,30.21,10.0,East,9.2,-,N/A,,Overcast,80,2013-04-17 03:35:00
10:55 PM,46.0,32.5,59,30.21,10.0,ENE,9.2,-,N/A,,Overcast,70,2013-04-17 03:55:00
11:15 PM,45.9,32.5,60,30.20,10.0,ENE,8.1,-,N/A,,Overcast,60,2013-04-17 04:15:00
11:35 PM,45.5,33.3,62,30.20,10.0,ENE,9.2,-,N/A,,Overcast,70,2013-04-17 04:35:00
11:55 PM,45.5,33.4,63,30.19,10.0,ENE,8.1,-,N/A,,Overcast,70,2013-04-17 04:55:00